Погода в Тогучине

Россия / Новосибирская область     55˚14′16″N   84˚24′10″E
темп.,
°C
ветер,
м/с
пор.,
м/с
влажн.,
%
обл.,
%
осадки,
мм/ч
давл.,
гПа
погр.,
м
17 января, вс
вс1701:00−15˚ю377886 0.0 102398
04:00−14˚ююв347983 0.0 101973
07:00−13˚ююв478092 0.0 1015107
10:00−12˚ю41279100 0.0 1012246
13:00−10˚юз71580100 0.0 1010607
16:00−8˚зюз81488100 0.0 1011749
19:00−9˚зюз71590100 0.2 1014625
22:00−10˚юз61592100 0.1 1016451
18 января, пн
пн1801:00−11˚юз61493100 0.1 1016377
04:00−9˚ююз61590100 0.0 1013482
07:00−7˚юз81882100 0.0 1010712
10:00−10˚зюз61489100 0.1 1010671
13:00−10˚зюз81389100 0.2 1011782
16:00−11˚зюз71389100 0.1 1012770
19:00−13˚зюз61392100 0.1 1016556
22:00−16˚зюз51295100 0.1 1019378
19 января, вт
вт1901:00−20˚зюз4799100 0.1 1022132
04:00−23˚зюз239959 0.0 102321
07:00−24˚ююз229876 0.0 102320
10:00−24˚ююв339310 0.0 102229
13:00−19˚ююв34935 0.0 1020151
16:00−17˚ю239476 0.0 101874
19:00−20˚юз339588 0.0 101836
22:00−19˚юз3595100 0.0 101786
20 января, ср
ср2001:00−19˚з2395100 0.0 101861
04:00−18˚з1294100 0.0 101837
07:00−20˚с1194100 0.0 101720
10:00−19˚ссв229499 0.0 101744
13:00−18˚св3493100 0.0 1017187
16:00−18˚св3496100 0.1 1016206
19:00−18˚св3697100 0.7 1016219
22:00−18˚св2297100 0.6 101625
21 января, чт
чт2101:00−19˚з1198100 0.8 101822
04:00−19˚зюз3997100 0.1 1018296
07:00−20˚з3698100 0.1 1019194
10:00−23˚зсз2298100 0.1 102030
13:00−22˚ссз2397100 0.1 1020183
16:00−22˚ссв2394100 0.0 1018200
19:00−25˚ссв3595100 0.0 1017124
22:00−23˚св4695100 0.0 1014226